Wind_Speed
24 26 26 25 23 20 18 18 16 19 20 18 21 22 20 19 17 15 10 7 6 9 6 11 8 15 17 15 16 21 22 17 16 15 19 26 32 30 28 24 17 17 12
26 26 26 24 21 20 17 17 16 17 18 15 17 19 16 16 16 12 10 4 4 3 8 10 11 10 7 13 15 12 13 14 16 17 19 21 22 23 23 22 20 19 12
27 27 26 26 23 20 19 18 17 14 16 15 11 13 12 13 15 15 10 5 1 1 5 7 9 11 11 7 11 13 9 15 19 17 21 19 21 18 21 21 22 13 23
30 28 26 26 24 23 20 19 18 16 15 14 8 7 9 13 15 14 12 8 3 2 6 9 8 9 11 8 9 10 10 11 14 13 12 15 17 15 15 17 16 26 23
31 30 29 29 28 26 24 20 18 18 16 16 10 6 8 13 13 12 12 8 4 2 4 11 11 11 12 15 16 13 12 13 16 16 14 15 16 16 16 23 26 22 22
33 32 31 32 31 28 23 23 21 18 18 18 14 10 9 10 9 8 9 8 4 4 6 9 11 10 9 9 10 9 10 12 15 15 16 16 15 21 25 21 20 21 21
35 36 36 36 36 28 23 22 22 21 20 19 18 14 12 11 9 7 5 5 6 4 7 10 8 7 7 8 9 9 7 9 10 12 12 17 23 20 18 19 21 21 21
38 39 37 36 35 30 28 25 22 23 23 22 21 17 14 13 12 11 4 2 2 3 5 9 12 12 11 9 6 7 9 7 10 13 15 17 17 17 18 21 21 19 19
40 40 41 40 38 36 33 31 27 25 25 24 23 22 17 16 15 13 11 6 6 5 7 9 11 11 10 9 9 7 7 10 12 14 17 16 17 19 20 20 19 18 16
42 41 42 43 43 41 38 34 35 33 31 26 27 24 22 19 18 16 15 11 11 11 11 11 12 11 10 10 10 11 9 6 9 17 18 17 20 20 20 20 18 16 16
44 45 44 41 41 41 40 37 34 36 39 30 25 28 25 23 22 21 20 19 16 16 16 15 15 13 13 13 12 12 12 9 10 12 17 20 20 20 20 20 19 17 15
41 40 40 43 46 47 49 41 39 41 36 34 31 30 29 27 26 25 25 24 22 20 20 20 18 16 17 17 15 14 14 14 13 16 19 21 22 21 20 21 22 20 19
31 28 31 33 34 34 37 45 45 43 37 35 31 28 33 29 30 30 29 28 27 26 24 24 24 21 20 20 19 18 18 18 20 19 21 22 21 21 20 20 22 24 25
30 33 32 25 25 30 31 32 31 33 31 33 39 36 33 37 32 32 33 32 31 30 28 26 26 26 24 23 25 24 22 23 22 25 24 25 25 22 20 19 20 21 23
34 32 29 26 26 24 25 25 27 32 31 29 30 29 35 33 36 34 34 36 36 34 33 31 31 30 30 28 26 24 23 24 23 25 30 28 28 25 22 20 21 22 24
32 36 36 35 34 32 28 32 23 23 26 34 33 34 34 28 33 39 36 36 37 40 39 36 34 33 33 32 30 28 28 24 24 23 24 26 27 25 24 23 24 24 25
27 29 31 32 34 36 35 35 32 28 27 28 34 36 34 38 29 36 42 38 39 37 39 39 39 37 35 34 34 33 33 31 29 26 24 25 27 27 27 27 27 28 30
22 21 22 21 21 25 30 33 36 38 35 30 27 32 38 38 38 36 35 45 41 41 37 38 39 40 38 36 36 35 36 34 32 31 30 31 31 30 29 29 30 31 32
25 25 24 23 22 21 20 21 23 31 40 36 30 26 30 38 37 38 34 42 45 41 41 40 39 38 40 39 39 39 39 38 35 35 33 33 34 33 33 32 32 32 34
28 27 27 26 26 25 25 23 22 23 34 40 35 32 29 28 39 41 40 37 48 46 43 41 42 43 42 43 43 43 42 41 38 38 36 35 35 34 35 34 34 34 35
31 30 30 29 29 29 28 27 25 24 23 34 40 37 33 28 31 37 39 38 40 50 50 44 44 46 44 44 46 45 42 42 40 39 39 38 38 38 37 36 36 38 38
34 32 31 31 30 31 31 30 28 27 26 25 32 42 39 36 32 33 36 37 40 43 47 53 49 48 46 46 46 46 46 45 42 42 43 44 43 41 41 39 40 41 39
36 34 33 33 32 31 30 30 29 29 29 28 26 29 38 41 40 34 33 34 36 40 40 46 53 56 49 46 48 49 49 48 46 46 47 46 46 45 44 43 44 42 36
37 36 35 35 35 34 33 31 30 30 31 31 30 29 28 31 39 42 38 39 39 40 41 38 41 48 57 58 54 50 51 51 51 51 50 49 48 49 48 48 44 39 38
39 38 37 37 36 37 37 36 34 32 32 33 35 34 33 32 29 34 42 44 40 40 44 43 41 43 50 53 56 58 58 55 53 53 53 52 51 51 52 50 48 44 43
41 41 40 40 39 39 39 40 39 38 36 36 36 38 38 38 36 35 33 37 49 50 47 45 48 43 45 48 51 55 60 62 62 59 58 58 56 54 53 52 50 52 51
Wind_Direction
281 286 291 296 299 303 313 315 320 328 335 348 352 353 352 352 351 357 18 41 33 76 134 182 163 147 141 156 173 197 200 197 192 201 200 209 217 225 216 214 231 235 244
273 281 286 296 298 301 306 308 310 317 329 340 353 354 359 4 8 11 24 37 57 87 96 169 191 193 195 171 174 180 175 194 194 201 204 200 205 210 215 219 222 238 238
270 278 281 288 297 298 301 304 303 305 317 325 347 356 13 18 22 18 29 54 73 148 168 153 166 178 164 170 169 174 195 203 202 208 200 202 203 208 221 227 230 238 161
262 272 277 282 291 290 295 300 301 295 302 314 326 352 351 16 10 20 19 40 53 256 220 196 193 193 205 213 208 257 236 220 198 193 191 202 209 221 221 222 207 161 174
261 264 270 274 280 284 285 290 297 288 288 298 290 294 309 325 357 12 25 16 18 18 203 213 203 217 231 238 256 256 221 209 198 207 216 217 219 220 198 174 160 185 181
265 261 267 271 274 281 284 285 282 288 278 284 289 270 284 300 340 347 27 24 46 68 118 174 184 190 210 226 221 210 203 198 203 207 206 203 197 174 162 178 184 183 184
260 262 265 267 271 275 281 283 282 276 276 275 282 271 266 273 293 308 13 25 50 77 122 137 149 158 167 154 164 165 175 190 195 190 184 180 162 173 187 185 185 187 192
260 262 264 264 266 267 272 275 282 280 273 260 272 273 257 259 263 281 273 103 96 111 126 140 146 143 136 131 142 151 158 170 197 201 183 177 191 192 191 190 192 198 205
258 259 262 263 265 264 265 274 276 284 276 269 250 267 257 248 250 257 260 184 183 175 164 160 161 159 164 172 180 184 197 215 201 192 198 202 199 196 192 197 205 214 224
258 258 259 261 263 266 266 270 278 281 288 271 251 252 256 242 239 240 251 227 197 202 194 197 195 194 201 199 195 190 200 205 207 214 211 205 199 198 203 209 217 231 246
256 258 257 258 262 265 270 266 271 280 282 283 270 240 251 243 235 234 237 245 225 214 209 204 207 209 204 206 210 214 213 226 227 205 202 202 202 207 217 224 234 246 259
256 257 258 258 260 259 261 266 272 271 276 276 273 256 236 247 236 233 232 237 237 227 221 218 222 221 226 225 222 227 225 227 233 219 210 209 211 219 228 235 241 253 263
263 265 264 263 262 262 262 261 259 265 264 252 260 262 246 239 245 234 234 235 237 233 229 228 228 233 234 234 235 230 235 237 227 226 224 226 229 234 240 247 252 259 268
268 266 260 253 259 261 259 261 257 253 254 254 242 255 262 240 240 244 236 235 235 237 235 232 235 234 236 238 241 244 241 244 239 230 232 235 236 240 246 254 266 269 270
263 263 255 262 258 245 255 245 248 247 247 247 248 251 252 247 241 239 243 237 234 234 234 233 232 235 238 239 238 246 244 242 248 245 237 240 237 241 250 260 268 270 273
260 256 263 263 261 253 254 262 255 252 248 239 244 250 256 242 249 238 239 241 237 234 231 233 233 235 236 237 240 237 241 246 253 253 241 238 234 241 251 260 268 275 281
267 264 263 262 260 253 248 246 250 249 258 266 241 239 239 254 250 246 229 238 238 236 233 231 232 235 236 236 237 241 238 243 250 245 240 238 240 244 252 260 268 275 279
267 264 264 267 264 257 253 254 253 246 243 243 259 243 233 234 248 248 248 228 236 239 235 234 234 234 236 238 237 237 239 242 248 249 244 242 244 248 253 258 264 270 276
267 263 260 262 265 264 262 263 270 257 240 237 235 249 243 236 227 240 237 240 230 237 238 238 237 234 235 235 237 238 240 243 246 254 251 251 249 248 254 261 266 272 276
269 265 261 261 264 265 265 267 270 273 246 238 231 232 242 242 236 235 232 237 238 228 238 241 239 235 231 230 233 239 241 246 248 250 252 253 252 251 257 263 268 272 274
269 268 265 263 262 262 263 263 264 267 267 249 240 236 238 238 239 236 235 239 240 240 226 233 240 240 236 234 233 237 240 245 248 248 250 251 249 249 252 257 261 265 269
263 265 264 263 261 261 262 262 260 259 262 263 251 243 239 237 238 235 235 239 241 242 243 230 231 238 241 241 242 240 242 244 243 245 248 249 249 251 254 256 260 265 270
260 260 260 261 261 261 262 262 259 255 255 258 259 253 247 246 238 236 227 231 234 236 242 241 237 234 236 241 244 246 248 249 248 247 248 250 251 251 254 257 260 265 268
259 260 259 258 259 260 261 262 262 259 253 252 254 255 255 252 248 245 241 231 232 235 237 243 248 248 243 236 237 243 247 246 249 250 252 252 253 253 255 256 261 264 264
255 256 257 258 259 258 257 258 259 260 258 253 250 253 254 256 255 247 244 242 239 238 241 243 246 250 247 247 249 247 240 243 247 249 251 253 254 255 258 259 261 262 263
256 256 256 256 256 258 258 257 255 255 256 255 254 251 251 253 254 252 250 248 243 244 241 243 241 243 248 252 255 257 254 253 248 246 248 252 253 253 255 258 260 263 267
Height
5728 5727 5725 5724 5722 5720 5719 5716 5713 5709 5705 5701 5697 5691 5687 5684 5680 5677 5676 5675 5673 5673 5674 5675 5677 5678 5680 5682 5684 5685 5687 5690 5693 5696 5697 5699 5703 5707 5711 5713 5716 5717 5717
5722 5721 5721 5720 5718 5716 5715 5713 5710 5708 5704 5700 5697 5693 5688 5685 5682 5678 5676 5675 5674 5674 5675 5676 5677 5679 5679 5681 5683 5685 5687 5690 5692 5694 5697 5699 5702 5706 5709 5710 5712 5714 5715
5718 5717 5716 5716 5714 5712 5711 5710 5707 5706 5703 5700 5696 5693 5690 5686 5684 5680 5677 5676 5675 5674 5675 5676 5678 5679 5680 5681 5683 5686 5688 5689 5690 5692 5695 5697 5700 5703 5705 5707 5709 5711 5713
5710 5711 5711 5711 5710 5708 5706 5707 5704 5703 5701 5699 5697 5693 5691 5687 5685 5682 5679 5676 5675 5674 5674 5676 5677 5679 5681 5683 5684 5685 5685 5686 5688 5691 5694 5696 5698 5700 5702 5704 5707 5710 5713
5703 5704 5704 5705 5704 5704 5703 5702 5701 5699 5697 5696 5694 5692 5690 5688 5685 5683 5681 5679 5676 5674 5673 5675 5677 5679 5681 5682 5683 5683 5684 5685 5687 5689 5692 5694 5696 5697 5700 5703 5707 5710 5713
5695 5696 5697 5697 5698 5698 5698 5697 5696 5696 5694 5693 5692 5689 5688 5686 5685 5683 5681 5680 5679 5676 5674 5675 5677 5678 5680 5682 5682 5682 5683 5685 5687 5688 5690 5693 5695 5698 5701 5704 5707 5710 5713
5686 5687 5689 5690 5690 5692 5692 5691 5691 5691 5690 5689 5688 5687 5686 5684 5684 5683 5680 5681 5680 5679 5676 5676 5678 5679 5681 5682 5684 5685 5686 5687 5689 5691 5693 5695 5697 5700 5703 5705 5708 5710 5713
5678 5679 5679 5680 5682 5683 5684 5684 5685 5684 5684 5684 5684 5683 5682 5682 5682 5682 5679 5680 5681 5680 5680 5679 5678 5680 5682 5684 5687 5688 5689 5690 5691 5693 5695 5697 5699 5701 5704 5706 5708 5711 5713
5667 5669 5670 5671 5673 5673 5674 5675 5676 5678 5678 5677 5678 5678 5677 5678 5679 5679 5679 5677 5680 5680 5681 5682 5682 5682 5683 5685 5687 5689 5690 5691 5693 5693 5695 5697 5699 5701 5703 5706 5708 5709 5711
5655 5657 5658 5660 5661 5662 5664 5666 5668 5669 5670 5671 5670 5672 5672 5672 5675 5675 5677 5677 5677 5679 5680 5682 5683 5684 5685 5686 5687 5689 5690 5691 5691 5693 5694 5696 5698 5700 5703 5704 5706 5708 5709
5644 5645 5647 5649 5651 5653 5654 5656 5659 5660 5662 5663 5664 5664 5667 5667 5669 5670 5672 5674 5674 5675 5678 5679 5681 5683 5684 5685 5686 5688 5689 5689 5691 5691 5693 5695 5697 5699 5701 5703 5704 5705 5705
5632 5634 5635 5637 5639 5641 5643 5646 5648 5652 5654 5655 5656 5657 5659 5661 5662 5664 5666 5668 5670 5672 5673 5676 5678 5680 5682 5683 5684 5685 5686 5687 5689 5690 5691 5693 5694 5696 5698 5699 5700 5701 5701
5622 5623 5624 5625 5627 5630 5631 5635 5638 5641 5644 5647 5648 5650 5651 5653 5655 5657 5659 5662 5664 5667 5668 5671 5673 5676 5678 5680 5681 5682 5683 5684 5686 5687 5688 5690 5691 5693 5694 5695 5696 5696 5696
5613 5615 5616 5617 5619 5619 5621 5623 5625 5629 5632 5635 5638 5640 5643 5643 5647 5649 5651 5654 5657 5660 5663 5664 5667 5670 5672 5674 5676 5677 5679 5680 5681 5682 5684 5685 5687 5688 5690 5690 5691 5691 5691
5604 5606 5607 5609 5610 5611 5613 5614 5615 5617 5620 5624 5626 5628 5632 5635 5637 5640 5643 5645 5648 5652 5655 5657 5660 5662 5665 5667 5670 5672 5673 5675 5675 5676 5677 5679 5681 5683 5684 5685 5685 5685 5685
5593 5596 5597 5599 5600 5602 5604 5606 5607 5608 5609 5612 5615 5618 5621 5624 5627 5629 5633 5636 5638 5641 5645 5649 5652 5655 5657 5660 5662 5665 5667 5668 5669 5670 5671 5673 5675 5677 5678 5678 5678 5678 5677
5584 5585 5586 5587 5588 5590 5592 5595 5597 5599 5601 5602 5603 5606 5609 5613 5616 5618 5621 5626 5629 5631 5636 5639 5643 5646 5649 5652 5654 5656 5659 5661 5662 5664 5665 5667 5669 5670 5671 5671 5671 5671 5670
5577 5578 5578 5579 5579 5580 5582 5584 5585 5587 5589 5592 5593 5595 5596 5601 5605 5608 5611 5615 5619 5623 5627 5630 5633 5637 5641 5643 5646 5648 5651 5652 5654 5656 5657 5659 5661 5662 5663 5663 5663 5662 5662
5570 5571 5572 5573 5573 5574 5574 5575 5574 5574 5576 5580 5582 5585 5586 5588 5591 5596 5599 5604 5608 5613 5617 5620 5623 5626 5630 5633 5637 5639 5641 5643 5646 5648 5649 5650 5652 5653 5654 5655 5655 5655 5654
5561 5562 5563 5564 5564 5565 5566 5567 5567 5566 5566 5570 5571 5573 5575 5577 5581 5584 5587 5591 5596 5601 5606 5610 5614 5616 5619 5623 5626 5629 5631 5633 5636 5638 5639 5641 5642 5644 5645 5646 5646 5646 5645
5552 5552 5553 5554 5555 5556 5557 5558 5559 5558 5557 5558 5561 5562 5565 5568 5570 5572 5577 5580 5583 5587 5592 5598 5602 5606 5609 5611 5614 5617 5620 5623 5625 5627 5629 5630 5632 5633 5634 5635 5635 5634 5633
5541 5542 5543 5544 5545 5546 5548 5549 5549 5550 5550 5550 5551 5553 5556 5558 5560 5562 5565 5569 5572 5575 5579 5583 5588 5593 5598 5602 5604 5606 5608 5611 5614 5616 5617 5619 5620 5622 5623 5624 5624 5624 5623
5530 5531 5533 5534 5535 5536 5537 5538 5539 5540 5541 5542 5542 5543 5545 5548 5550 5552 5554 5557 5560 5564 5567 5571 5576 5580 5584 5588 5592 5595 5598 5601 5602 5603 5605 5607 5609 5610 5611 5612 5612 5613 5613
5517 5519 5521 5523 5524 5526 5527 5528 5528 5529 5531 5532 5533 5534 5535 5536 5539 5541 5544 5546 5549 5553 5556 5560 5563 5566 5569 5572 5576 5580 5584 5587 5590 5591 5593 5595 5597 5598 5599 5599 5600 5601 5602
5505 5507 5508 5510 5511 5513 5515 5516 5517 5518 5520 5521 5523 5524 5526 5527 5528 5529 5532 5535 5537 5540 5543 5545 5549 5552 5555 5559 5562 5565 5567 5571 5575 5577 5579 5581 5583 5584 5586 5587 5588 5589 5590
5491 5493 5495 5497 5499 5500 5501 5503 5505 5507 5508 5510 5511 5513 5514 5516 5517 5519 5520 5522 5525 5527 5530 5533 5536 5538 5541 5544 5547 5550 5553 5555 5558 5560 5563 5565 5568 5569 5571 5573 5574 5575 5576